This demonstration page uses our WeatherBlox Daily Observations layout. Learn more.

Left ArrowRight Arrow

36.19886, -115.1175

Hourly Observations for May 28, 2022

Temp ( °F °C ) Dew Point ( °F °C ) Humidity (%) Winds ( mph kmh ) Pressure ( in mb ) Visibility ( mi km ) Precip ( " mm )
12:53 am 00:53 Clear 85 29.4 28 -2.2 13 13 SSW 17 28 29.66 1004 10 16 0.00 0.00
1:53 am 01:53 Clear 84 28.9 31 -0.6 15 15 SSW 20 31 29.64 1004 10 16 0.00 0.00
2:53 am 02:53 Clear 82 27.8 33 0.6 17 17 SW 16 26 29.62 1003 10 16 0.00 0.00
3:53 am 03:53 Clear 82 27.8 32 0 16 16 SW 16 26 29.60 1002 10 16 0.00 0.00
4:53 am 04:53 Clear 80 26.7 31 -0.6 17 17 SSE 8 13 29.62 1003 10 16 0.00 0.00
5:53 am 05:53 Sunny 81 27.2 29 -1.7 15 15 SW 16 26 29.61 1003 10 16 0.00 0.00
6:53 am 06:53 Sunny 80 26.7 29 -1.7 15 15 S 13 20 29.61 1003 10 16 0.00 0.00
7:53 am 07:53 Sunny 83 28.3 30 -1.1 15 15 SSW 6 9 29.61 1003 10 16 0.00 0.00
8:53 am 08:53 Sunny 85 29.4 30 -1.1 14 14 NNW 8 13 29.63 1003 10 16 0.00 0.00
9:53 am 09:53 Sunny 87 30.6 29 -1.7 12 12 NW 6 9 29.62 1003 10 16 0.00 0.00
10:53 am 10:53 Sunny 88 31.1 30 -1.1 12 12 ESE 3 6 29.62 1003 10 16 0.00 0.00
11:53 am 11:53 Sunny 90 32.2 30 -1.1 12 12 undefined N/A 29.61 1003 10 16 0.00 0.00
12:53 pm 12:53 Sunny 92 33.3 32 0 12 12 S 10 17 29.59 1002 10 16 0.00 0.00
1:53 pm 13:53 Sunny 92 33.3 35 1.7 13 13 Calm 29.56 1001 10 16 0.00 0.00
2:53 pm 14:53 Sunny 94 34.4 35 1.7 13 13 SSW 12 19 29.52 1000 10 16 0.00 0.00
3:53 pm 15:53 Sunny 94 34.4 36 2.2 13 13 SW 13 20 29.50 999 10 16 0.00 0.00
4:34 pm 16:34 Sunny 94 34.4 36 2.2 13 13 WSW 14 22 29.35 994 10 16 0.00 0.00
4:53 pm 16:53 Sunny 94 34.4 35 1.7 13 13 WSW 13 20 29.49 999 10 16 0.00 0.00
5:53 pm 17:53 Sunny 93 33.9 36 2.2 13 13 WSW 18 30 29.47 998 10 16 0.00 0.00
6:53 pm 18:53 Sunny 92 33.3 36 2.2 14 14 SW 21 33 29.46 998 10 16 0.00 0.00
7:53 pm 19:53 Clear 88 31.1 38 3.3 17 17 SSW 22 35 29.45 997 10 16 0.00 0.00
8:53 pm 20:53 Clear 86 30 37 2.8 18 18 WSW 21 33 29.45 997 10 16 0.00 0.00
9:53 pm 21:53 Clear 84 28.9 38 3.3 19 19 SSW 15 24 29.46 998 10 16 0.00 0.00
10:53 pm 22:53 Clear 82 27.8 38 3.3 21 21 S 13 20 29.46 998 10 16 0.00 0.00
11:53 pm 23:53 Clear 80 26.7 39 3.9 23 23 S 12 19 29.45 997 7 11 0.00 0.00

Powered by AerisWeather